Flag for Canada Weather past 2 weeks in Gander, Newfoundland and Labrador, Canada

Now
27 °F

Passing clouds.


Feels Like: 20 °F
Forecast: 17 / 36 °F
Wind: 6 mph from South

Location: Gander Int. Airport

Current Time: Mar 30, 2015 at 10:31:07 PM

Latest Report: Mar 30, 2015 at 9:30 PM


Visibility: 20 mi

Pressure: 29.96 "Hg

Humidity: 74%

Dew point: 19 °F

Location of GanderLocation

Historic Weather in Gander — Graph

°F

Gander temperature yesterday

Maximum temperature yesterday: 28 °F (at 12:30 AM)
Minimum temperature yesterday: 23 °F (at 10:30 PM)
Average temperature yesterday: 27 °F

Past Weeks' High & Low Weather Summary

 TemperatureHumidityPressure
High41 °F (Mar 27, 12:30 PM)100% (Mar 16, 7:30 PM)30.28 "Hg (Mar 16, 7:30 PM)
Low14 °F (Mar 16, 3:30 AM)32% (Mar 25, 4:30 PM)28.82 "Hg (Mar 19, 6:30 AM)
Average27 °F82%29.64 "Hg
* Reported Mar 15 8:30 PM — Mar 30 8:30 PM, Gander, Weather by CustomWeather, © 2015

Note: Actual official high and low records may vary slightly from our data, if they occured in-between our weather recording intervals... More about our weather records

Advertising

Gander weather history for previous 24 hours

 ConditionsComfort  
Time TempWeatherWind HumidityBarometerVisibility
8:30 PM
Mon, Mar 30
28 °FPassing clouds.7 mph69%29.97 "Hg20 mi
7:30 PM32 °FPassing clouds.7 mph60%29.97 "Hg20 mi
6:30 PM34 °FPassing clouds.9 mph51%29.96 "Hg20 mi
5:30 PM36 °FPassing clouds.12 mph48%29.98 "Hg20 mi
4:30 PM36 °FPassing clouds.15 mph48%29.97 "Hg20 mi
3:30 PM36 °FPassing clouds.13 mph48%29.98 "Hg20 mi
2:30 PM36 °FPassing clouds.17 mph48%30.00 "Hg20 mi
1:30 PM36 °FPassing clouds.8 mph52%30.01 "Hg20 mi
12:30 PM34 °FPassing clouds.5 mph60%30.02 "Hg20 mi
11:30 AM30 °FPassing clouds.7 mph69%30.05 "Hg20 mi
10:30 AM27 °FPassing clouds.6 mph74%30.06 "Hg20 mi
9:30 AM23 °FPassing clouds.7 mph80%30.05 "Hg20 mi
8:30 AM18 °FPassing clouds.6 mph79%30.05 "Hg20 mi
7:30 AM14 °FPassing clouds.9 mph85%30.04 "Hg20 mi
6:30 AM14 °FPassing clouds.7 mph85%30.02 "Hg20 mi
5:30 AM18 °FPassing clouds.12 mph86%29.99 "Hg20 mi
4:30 AM18 °FPassing clouds.13 mph86%29.98 "Hg20 mi
3:30 AM19 °FPassing clouds.14 mph79%29.97 "Hg20 mi
2:30 AM19 °FPassing clouds.15 mph79%29.96 "Hg20 mi
1:30 AM21 °FPassing clouds.15 mph74%29.96 "Hg20 mi
12:30 AM21 °FPassing clouds.14 mph74%29.94 "Hg20 mi
11:30 PM
Sun, Mar 29
23 °FPartly cloudy.10 mph74%29.94 "Hg20 mi
10:30 PM23 °FPartly cloudy.10 mph74%29.92 "Hg20 mi
Weather by CustomWeather, © 2015

See weather overviewHow to use our weather pages